Temp
74 75 75 75 75 76 76 76 76 76 75 75 76 76 76 77 77 77 78 77 77 77 77 76 77 77 79 77 77 76 76 76 76 75 75 76 76 76 79 79 77 76
74 75 77 76 75 77 76 77 77 76 76 75 76 76 77 77 78 78 78 78 78 78 77 77 77 77 76 76 76 76 75 76 75 79 77 76 76 76 77 77 77 76
75 75 76 75 76 76 78 77 77 77 77 77 77 77 78 78 78 77 78 78 78 79 78 77 77 77 77 77 76 76 77 75 76 77 76 76 75 76 77 78 77 77
75 76 77 77 77 77 78 77 76 77 77 77 77 79 79 81 79 79 78 80 78 78 79 78 78 78 78 77 76 76 76 75 76 76 75 76 77 77 77 76 77 76
77 76 76 77 77 78 78 78 78 77 78 78 79 78 78 78 77 78 78 78 77 78 78 78 78 78 78 77 77 76 76 76 76 75 75 75 76 76 78 77 75 76
77 76 76 77 77 77 77 78 78 79 79 79 79 80 79 79 78 78 78 78 78 79 79 79 78 79 79 78 77 77 78 78 77 75 75 75 77 76 79 77 76 76
78 76 77 77 78 78 78 78 78 79 79 80 79 79 80 79 79 79 78 79 79 79 79 78 77 77 76 75 74 74 76 77 77 76 76 76 76 75 77 75 75 75
78 78 78 77 78 78 78 78 78 78 79 79 79 80 80 80 79 80 78 77 76 75 75 75 73 73 73 74 73 73 74 78 78 76 75 75 74 74 74 77 74 73
79 78 78 78 78 79 79 80 80 80 80 79 80 80 80 81 79 74 72 74 74 73 73 74 73 73 73 73 73 73 73 75 78 76 75 75 75 75 75 74 74 73
78 78 79 79 79 80 80 81 82 81 81 81 81 82 81 79 74 73 74 73 73 73 73 73 73 73 73 72 73 73 74 75 76 76 76 76 76 76 75 74 74 73
78 79 79 78 78 79 80 81 82 82 82 82 82 82 82 75 73 74 74 73 73 73 73 73 73 72 72 73 73 74 75 76 76 76 75 75 75 75 77 74 74 74
78 79 79 79 79 79 80 81 82 82 82 82 82 82 79 75 73 74 75 73 73 73 73 73 73 72 72 73 73 74 74 74 75 74 74 74 75 75 75 75 75 74
78 79 79 79 79 79 80 80 81 83 83 83 83 82 78 75 75 74 74 74 74 73 73 73 73 73 72 73 73 73 73 74 74 73 73 75 76 75 75 75 75 75
78 79 79 79 79 79 79 79 81 82 82 82 82 81 78 77 76 75 75 75 75 74 74 74 73 73 73 73 73 74 74 74 74 74 74 75 75 75 75 75 75 75
78 78 78 78 79 78 78 78 79 80 81 81 80 80 80 78 78 78 75 74 74 74 74 74 74 74 75 74 74 74 74 75 75 75 75 75 75 75 74 74 74 74
77 78 78 77 77 77 77 78 79 79 80 80 80 80 79 78 77 77 77 75 74 74 74 75 75 76 77 78 77 76 75 76 76 76 75 75 75 74 74 74 74 75
77 77 77 76 77 77 78 77 78 78 79 79 79 78 78 77 77 76 76 76 75 74 74 74 75 76 75 71 72 75 78 76 76 76 76 75 75 74 73 74 74 73
76 76 76 76 76 77 77 77 77 77 77 77 77 77 76 77 76 76 75 76 75 74 74 74 74 74 69 67 69 69 75 77 77 77 77 76 75 74 74 74 73 72
74 74 74 75 76 76 77 77 76 75 75 75 76 77 76 75 74 74 74 74 74 72 72 71 68 66 64 66 67 68 69 75 75 76 77 76 75 74 74 73 71 70
73 74 74 75 75 76 76 76 75 75 75 76 76 75 74 74 74 73 72 71 72 70 68 66 65 64 61 63 64 64 66 70 73 74 72 72 72 72 72 71 69 69
73 74 74 75 75 76 75 75 75 74 74 73 73 72 71 71 70 69 69 67 66 66 65 63 62 61 60 62 61 62 64 69 70 73 71 71 70 70 70 69 67 67
73 74 74 75 75 74 74 73 72 72 72 72 70 69 69 68 65 65 63 63 63 63 61 60 61 59 59 60 60 62 67 71 71 71 71 71 70 68 65 64 66 66
73 74 73 74 74 73 72 72 71 70 70 70 68 67 65 62 61 61 60 60 62 61 59 59 59 58 58 58 59 61 68 68 69 71 70 68 66 65 64 65 66 65
69 71 72 73 72 72 70 70 69 69 69 70 68 64 61 61 61 61 61 62 62 60 60 58 58 59 57 56 57 58 65 65 68 69 67 66 65 66 66 67 70 70
69 69 69 70 70 70 70 69 69 69 69 67 64 63 61 61 62 60 60 60 61 61 64 59 58 60 56 56 56 57 62 62 65 67 66 66 65 62 64 65 66 69
69 70 70 70 69 68 68 68 69 68 67 64 62 62 61 61 61 60 59 59 60 60 60 59 58 59 59 55 55 57 59 61 61 63 64 63 63 63 62 63 64 63
MSLP
1015.67 1015.83 1016.03 1016.19 1016.31 1016.31 1016.51 1016.79 1016.87 1017.03 1017.11 1017.15 1017.35 1017.31 1017.31 1017.15 1017.11 1017.23 1017.23 1017.27 1017.35 1017.43 1017.47 1017.51 1017.51 1017.55 1017.55 1017.51 1017.55 1017.63 1017.71 1017.75 1017.75 1017.71 1017.79 1017.83 1017.87 1017.91 1017.99 1017.87 1017.83 1017.87
1015.59 1015.67 1015.75 1015.91 1016.11 1016.11 1016.23 1016.27 1016.47 1016.67 1016.83 1016.91 1016.91 1016.95 1016.91 1016.95 1016.95 1017.03 1017.15 1017.23 1017.23 1017.31 1017.27 1017.39 1017.43 1017.43 1017.47 1017.51 1017.55 1017.67 1017.75 1017.75 1017.83 1017.51 1017.71 1017.75 1017.75 1017.75 1017.83 1017.71 1017.67 1017.59
1015.47 1015.63 1015.71 1015.95 1016.07 1016.07 1016.07 1016.07 1016.19 1016.35 1016.51 1016.55 1016.63 1016.71 1016.79 1016.71 1016.87 1016.87 1016.91 1017.07 1017.23 1017.19 1017.23 1017.27 1017.35 1017.35 1017.39 1017.43 1017.47 1017.63 1017.75 1017.79 1017.83 1017.55 1017.63 1017.75 1017.63 1017.71 1017.59 1017.51 1017.55 1017.63
1015.31 1015.39 1015.51 1015.63 1015.71 1015.83 1015.83 1016.03 1016.15 1016.23 1016.31 1016.51 1016.59 1016.51 1016.55 1016.55 1016.63 1016.75 1016.83 1016.91 1017.11 1017.15 1017.15 1017.23 1017.31 1017.31 1017.35 1017.39 1017.47 1017.63 1017.63 1017.67 1017.63 1017.55 1017.71 1017.67 1017.63 1017.63 1017.59 1017.51 1017.51 1017.51
1015.15 1015.27 1015.35 1015.43 1015.47 1015.51 1015.63 1015.91 1016.07 1016.15 1016.23 1016.19 1016.23 1016.31 1016.43 1016.55 1016.67 1016.75 1016.83 1016.91 1016.95 1017.07 1017.11 1017.19 1017.19 1017.27 1017.23 1017.35 1017.43 1017.63 1017.59 1017.67 1017.55 1017.59 1017.79 1017.83 1017.59 1017.59 1017.51 1017.47 1017.59 1017.63
1014.91 1014.99 1015.11 1015.27 1015.39 1015.51 1015.67 1015.75 1015.79 1015.87 1015.99 1016.15 1016.15 1016.11 1016.27 1016.31 1016.51 1016.63 1016.71 1016.83 1016.83 1016.91 1017.03 1017.03 1017.15 1017.15 1017.15 1017.23 1017.35 1017.47 1017.55 1017.63 1017.47 1017.55 1017.71 1017.79 1017.55 1017.39 1017.39 1017.39 1017.51 1017.59
1014.79 1014.91 1015.03 1015.07 1015.27 1015.35 1015.51 1015.51 1015.55 1015.63 1015.75 1015.79 1015.87 1016.11 1016.07 1016.27 1016.39 1016.47 1016.51 1016.55 1016.63 1016.79 1016.91 1016.95 1017.03 1017.19 1017.47 1018.15 1018.43 1018.31 1017.79 1017.47 1017.35 1017.43 1017.63 1017.55 1017.47 1017.43 1017.27 1017.31 1017.35 1017.47
1014.43 1014.55 1014.71 1014.87 1015.11 1015.23 1015.39 1015.35 1015.43 1015.47 1015.51 1015.63 1015.91 1015.79 1015.79 1015.99 1016.07 1016.23 1016.67 1016.99 1017.15 1017.15 1017.07 1017.11 1017.03 1017.15 1017.23 1017.35 1017.47 1018.03 1018.07 1017.79 1017.47 1017.39 1017.47 1017.43 1017.39 1017.47 1017.35 1017.23 1017.27 1017.39
1014.07 1014.31 1014.47 1014.71 1014.91 1014.99 1015.19 1015.19 1015.19 1015.23 1015.23 1015.55 1015.67 1015.63 1015.55 1015.67 1016.07 1016.43 1016.51 1016.63 1016.67 1016.67 1016.79 1016.83 1016.91 1017.11 1017.27 1017.35 1017.43 1017.63 1017.75 1017.79 1017.59 1017.31 1017.35 1017.43 1017.47 1017.43 1017.31 1017.19 1017.27 1017.31
1013.91 1013.99 1014.27 1014.47 1014.71 1014.71 1014.91 1014.91 1014.95 1015.03 1015.03 1015.27 1015.31 1015.35 1015.51 1015.79 1015.91 1016.03 1016.27 1016.35 1016.59 1016.95 1016.75 1016.51 1016.55 1016.71 1017.03 1017.19 1017.39 1017.55 1017.55 1017.43 1017.31 1017.35 1017.19 1017.15 1017.27 1017.27 1017.19 1017.19 1017.19 1017.27
1013.67 1013.79 1014.07 1014.23 1014.39 1014.47 1014.63 1014.67 1014.75 1014.83 1014.87 1015.03 1015.11 1015.23 1015.31 1015.71 1015.75 1015.75 1015.95 1016.23 1016.35 1016.43 1016.59 1016.63 1016.71 1016.87 1016.99 1017.11 1017.15 1017.11 1017.15 1017.15 1017.15 1017.11 1017.11 1017.23 1017.23 1016.99 1016.91 1016.99 1017.03 1017.03
1013.43 1013.59 1013.79 1013.95 1014.11 1014.23 1014.35 1014.43 1014.55 1014.67 1014.75 1014.75 1014.79 1015.03 1015.19 1015.31 1015.51 1015.51 1015.47 1015.63 1015.83 1015.99 1016.15 1016.35 1016.39 1016.51 1016.71 1016.91 1017.07 1017.15 1017.11 1016.99 1016.95 1016.95 1016.83 1016.83 1016.99 1016.91 1016.71 1016.67 1016.79 1016.75
1013.23 1013.31 1013.39 1013.59 1013.75 1013.91 1014.03 1014.23 1014.35 1014.39 1014.51 1014.63 1014.55 1014.71 1014.99 1015.27 1015.31 1015.27 1015.19 1015.31 1015.43 1015.63 1015.79 1015.95 1016.15 1016.27 1016.39 1016.47 1016.55 1016.71 1016.83 1016.87 1016.75 1016.75 1016.71 1016.67 1016.63 1016.67 1016.51 1016.51 1016.55 1016.59
1012.83 1012.87 1013.11 1013.27 1013.43 1013.63 1013.83 1013.99 1014.07 1014.15 1014.19 1014.19 1014.27 1014.51 1014.71 1014.87 1014.99 1015.03 1015.03 1015.03 1015.15 1015.35 1015.39 1015.59 1015.91 1016.11 1016.19 1016.23 1016.31 1016.35 1016.43 1016.55 1016.63 1016.59 1016.59 1016.63 1016.51 1016.43 1016.35 1016.35 1016.35 1016.39
1012.47 1012.63 1012.79 1013.03 1013.23 1013.47 1013.67 1013.79 1013.83 1013.83 1013.87 1013.95 1014.03 1014.15 1014.23 1014.35 1014.39 1014.55 1014.87 1015.07 1015.11 1015.23 1015.35 1015.47 1015.71 1015.79 1015.75 1015.87 1016.07 1016.23 1016.19 1016.31 1016.43 1016.47 1016.47 1016.47 1016.43 1016.35 1016.27 1016.27 1016.31 1016.31
1012.23 1012.39 1012.59 1012.79 1013.07 1013.23 1013.31 1013.35 1013.43 1013.51 1013.59 1013.75 1013.79 1013.83 1013.91 1014.03 1014.27 1014.39 1014.63 1014.87 1015.07 1015.19 1015.27 1015.39 1015.43 1015.35 1015.31 1015.35 1015.47 1015.71 1015.91 1015.99 1016.07 1016.15 1016.23 1016.23 1016.31 1016.27 1016.27 1016.27 1016.27 1016.27
1012.15 1012.27 1012.35 1012.63 1012.63 1012.71 1012.83 1012.95 1013.03 1013.11 1013.31 1013.43 1013.51 1013.63 1013.75 1013.91 1014.15 1014.47 1014.63 1014.67 1014.83 1015.03 1015.23 1015.23 1015.19 1015.11 1015.11 1015.23 1015.31 1015.35 1015.47 1015.67 1015.83 1015.87 1015.83 1015.95 1016.03 1016.07 1016.27 1016.35 1016.43 1016.43
1011.99 1012.07 1012.23 1012.31 1012.35 1012.47 1012.51 1012.55 1012.71 1012.99 1013.19 1013.31 1013.43 1013.63 1013.67 1013.79 1014.15 1014.27 1014.39 1014.47 1014.63 1014.79 1014.99 1015.07 1015.11 1015.11 1015.23 1015.39 1015.43 1015.39 1015.35 1015.35 1015.43 1015.51 1015.55 1015.59 1015.67 1015.83 1016.03 1016.31 1016.55 1016.71
1011.75 1011.95 1012.03 1012.07 1012.07 1012.11 1012.23 1012.39 1012.63 1012.87 1013.07 1013.23 1013.39 1013.31 1013.51 1013.83 1013.99 1014.19 1014.35 1014.39 1014.59 1014.83 1015.07 1015.27 1015.55 1015.75 1015.83 1015.79 1015.71 1015.55 1015.35 1015.23 1015.15 1015.11 1015.27 1015.43 1015.63 1015.99 1016.19 1016.39 1016.63 1016.83
1011.47 1011.67 1011.83 1011.79 1011.79 1011.87 1011.99 1012.23 1012.51 1012.75 1012.79 1012.83 1012.95 1013.23 1013.51 1013.67 1013.87 1014.15 1014.39 1014.63 1014.79 1015.07 1015.51 1015.83 1015.99 1016.11 1016.03 1015.95 1015.87 1015.79 1015.67 1015.47 1015.15 1015.19 1015.75 1016.31 1016.51 1016.63 1016.83 1016.91 1016.83 1016.95
1011.23 1011.27 1011.47 1011.55 1011.55 1011.59 1011.75 1012.03 1012.27 1012.47 1012.71 1012.91 1013.23 1013.63 1013.99 1014.35 1014.55 1014.71 1014.91 1015.23 1015.51 1015.71 1015.99 1016.31 1016.51 1016.35 1016.15 1016.03 1015.91 1015.79 1015.71 1015.63 1015.51 1015.59 1015.91 1016.27 1016.63 1017.07 1017.27 1017.31 1017.43 1017.27
1010.83 1010.99 1011.11 1011.23 1011.35 1011.47 1011.75 1012.07 1012.31 1012.63 1013.07 1013.35 1013.63 1013.91 1014.03 1014.27 1014.91 1015.31 1015.79 1016.03 1016.19 1016.35 1016.47 1016.71 1016.87 1016.67 1016.35 1016.11 1015.95 1015.75 1015.59 1015.51 1015.67 1016.15 1016.47 1016.55 1016.75 1017.03 1017.19 1017.47 1017.43 1017.43
1010.43 1010.59 1010.87 1011.03 1011.19 1011.55 1011.95 1012.27 1012.55 1012.83 1012.99 1013.07 1013.71 1014.15 1014.59 1015.07 1015.55 1015.91 1016.07 1016.23 1016.47 1016.67 1017.03 1017.47 1017.43 1017.15 1016.63 1016.35 1016.15 1015.99 1015.75 1015.75 1015.71 1015.95 1016.35 1016.67 1016.95 1016.91 1016.99 1017.27 1017.31 1017.51
1011.39 1011.31 1011.07 1010.95 1011.19 1011.59 1012.03 1012.39 1012.59 1012.75 1012.91 1012.87 1013.47 1014.31 1014.99 1015.47 1015.75 1016.15 1016.47 1016.67 1016.95 1017.19 1017.31 1017.59 1017.75 1017.71 1017.11 1016.55 1016.39 1016.31 1016.27 1016.27 1016.07 1016.11 1016.51 1016.83 1017.23 1017.23 1017.23 1017.27 1017.23 1017.51
1010.75 1011.75 1012.47 1012.43 1012.15 1011.99 1011.91 1012.39 1012.71 1012.83 1012.95 1013.19 1013.75 1014.31 1015.07 1015.47 1015.83 1016.27 1016.67 1016.95 1017.15 1017.35 1017.39 1017.43 1017.59 1017.83 1017.95 1017.27 1016.71 1016.59 1016.63 1016.83 1016.75 1016.55 1016.67 1016.99 1017.23 1017.51 1017.59 1017.67 1017.63 1017.55
1010.23 1010.71 1011.51 1012.39 1013.03 1013.23 1012.79 1012.55 1013.11 1013.35 1013.47 1013.99 1014.51 1014.75 1015.23 1015.63 1015.91 1016.23 1016.67 1017.15 1017.31 1017.27 1017.51 1017.67 1017.67 1017.71 1017.99 1018.15 1017.47 1017.03 1016.99 1017.35 1017.55 1017.51 1017.59 1017.71 1018.07 1018.15 1018.23 1018.27 1018.47 1018.27
Wind_Speed
5 5 6 6 6 6 6 7 6 6 6 5 6 6 6 5 4 4 4 3 4 4 4 4 3 3 3 2 2 2 2 3 3 2 2 1 2 3 4 4 3 3
5 5 5 5 5 5 6 6 7 7 6 5 6 5 4 4 4 4 4 4 3 4 4 4 3 3 3 3 2 2 3 2 3 1 2 2 3 3 4 3 3 2
5 4 6 6 7 7 7 6 6 6 6 6 5 4 5 4 4 4 4 4 4 5 4 4 4 4 4 3 3 3 3 3 4 3 2 3 3 3 4 3 3 3
6 6 6 6 6 7 6 6 5 5 4 4 5 5 5 4 4 5 4 5 5 5 5 4 4 4 4 4 3 3 3 3 4 3 3 3 3 3 4 3 3 2
8 7 5 5 5 5 5 6 6 6 6 6 5 4 5 4 4 4 5 4 4 5 4 5 4 5 5 4 3 4 3 4 3 3 3 4 4 2 3 3 2 1
7 6 6 6 6 5 6 6 6 6 6 5 6 4 4 5 4 4 4 5 5 5 5 4 4 5 5 6 4 5 5 5 5 3 3 4 5 3 3 2 1 1
9 7 7 6 6 6 6 6 5 5 5 6 4 5 4 4 5 4 4 5 5 4 4 3 3 2 5 8 7 7 6 5 4 3 4 4 4 4 2 2 2 2
10 8 7 6 7 6 7 6 6 6 5 4 5 5 5 5 6 2 3 8 7 5 3 3 1 3 5 5 4 5 7 7 5 5 4 4 3 3 3 2 2 3
10 9 8 8 9 7 8 7 6 6 5 6 6 6 4 5 3 9 7 6 4 5 5 4 2 2 2 4 4 2 5 6 8 5 5 4 4 5 4 3 3 3
10 9 10 10 10 9 9 8 7 6 5 6 7 5 6 4 9 7 6 6 5 1 3 5 5 5 4 4 5 6 6 6 6 6 6 5 5 4 4 3 4 3
11 10 10 10 10 8 9 8 8 7 6 7 7 6 4 8 6 7 7 7 7 8 7 6 4 3 3 4 5 5 6 4 5 5 3 3 4 5 4 4 4 5
12 11 11 11 10 9 9 9 8 7 7 6 6 7 5 7 8 6 7 8 7 7 6 6 5 5 5 4 4 4 5 4 3 4 5 5 7 6 5 4 5 5
11 11 11 10 10 9 8 7 8 8 8 8 7 6 7 8 8 9 8 7 7 7 7 7 6 6 6 6 6 5 5 5 4 3 3 5 6 6 5 4 4 4
11 10 10 9 8 8 8 8 8 8 8 7 6 7 8 8 9 9 8 7 7 7 8 7 7 6 6 6 6 6 6 6 5 5 5 5 6 6 4 4 4 3
10 9 8 8 8 7 8 8 9 9 8 7 6 6 7 8 8 8 7 7 6 6 6 6 7 8 7 7 6 6 6 6 6 6 6 6 6 5 3 3 2 2
10 8 8 8 8 9 9 10 9 9 9 8 7 7 7 7 7 7 8 9 8 7 6 6 6 6 8 12 9 6 7 6 6 6 6 6 5 4 2 1 1 1
9 9 9 10 10 10 10 10 11 9 9 9 8 7 7 6 7 8 7 7 8 8 8 7 7 6 10 11 11 10 6 6 7 7 7 7 6 5 3 5 5 5
9 9 9 10 10 11 11 10 9 8 8 7 7 6 6 6 7 8 8 7 6 6 6 6 6 3 6 5 7 8 8 7 7 7 7 7 5 4 5 6 6 5
9 9 10 10 10 10 9 8 8 7 7 6 7 7 6 8 8 7 7 6 6 7 5 1 2 8 7 6 6 7 7 6 6 6 6 5 2 2 4 6 6 6
10 10 11 10 10 9 9 8 7 8 7 6 6 5 7 8 7 6 3 2 2 2 5 5 4 8 8 7 7 8 8 7 4 2 5 5 3 2 2 3 5 6
10 11 11 10 10 10 10 9 8 7 6 4 3 3 4 5 6 6 6 7 7 6 6 6 5 11 8 8 7 7 7 6 4 1 3 4 8 7 6 4 4 4
12 11 11 10 10 9 8 7 5 6 7 7 7 7 7 8 8 9 9 9 8 7 7 7 6 13 11 10 8 6 3 2 0 4 5 7 7 8 9 6 3 5
12 12 10 10 9 8 7 7 9 10 9 8 9 8 8 9 9 8 8 9 8 8 8 7 8 11 13 13 12 12 5 2 3 5 6 7 7 9 9 7 5 5
8 5 4 9 8 8 8 10 10 8 9 9 11 10 10 9 8 9 9 8 9 9 8 8 7 10 12 13 13 13 8 3 2 6 7 8 7 6 5 4 7 12
9 6 7 7 6 6 10 11 10 9 7 8 9 11 11 9 9 10 9 9 9 9 12 10 7 8 12 13 15 15 10 6 4 4 8 7 7 8 7 6 6 7
8 9 7 5 5 5 6 11 7 5 9 10 10 9 10 9 9 10 11 9 7 8 7 6 7 7 8 12 13 15 15 9 8 6 6 8 8 8 9 8 6 3
Wind_Direction
177 180 189 197 200 199 194 196 198 199 205 199 202 216 211 222 217 217 227 228 228 232 237 237 244 246 248 256 273 282 277 263 277 268 243 236 272 288 299 305 301 266
190 184 190 194 203 204 201 197 195 195 202 201 209 212 222 219 224 211 224 230 231 236 237 238 239 240 246 252 257 255 267 261 265 261 288 310 283 280 273 276 277 285
189 189 190 193 199 200 199 199 196 197 198 207 206 207 218 216 224 216 221 224 231 238 238 238 241 240 241 240 233 235 244 253 259 267 254 260 280 285 277 287 302 300
202 196 195 199 200 199 193 189 199 200 203 207 211 210 208 218 214 218 220 223 224 234 236 234 235 239 240 243 230 235 239 243 250 265 274 282 272 270 276 284 301 327
205 202 200 199 203 202 189 190 198 198 204 213 215 215 213 218 215 215 214 222 219 231 232 233 233 235 237 241 227 237 242 249 257 251 256 272 273 266 274 273 264 329
207 203 199 197 199 199 198 200 203 202 209 214 220 218 218 215 216 214 206 212 216 223 228 227 228 235 225 227 223 226 241 248 248 231 242 253 270 255 249 205 188 198
203 201 202 198 200 201 204 205 204 205 210 214 212 225 216 214 214 216 208 208 214 219 229 233 239 282 21 10 335 330 294 243 247 233 233 249 241 255 231 186 190 217
202 201 201 196 202 204 209 209 207 206 207 206 215 226 213 219 218 215 36 32 42 48 57 59 90 133 148 167 190 187 269 287 259 235 229 234 219 238 238 230 201 223
199 201 199 200 204 208 213 216 216 213 203 210 216 221 214 216 98 94 126 142 160 178 171 172 179 220 165 201 230 222 250 266 268 235 216 222 229 241 240 232 224 233
200 202 202 204 207 211 215 218 219 220 213 218 220 212 211 107 121 141 148 194 202 216 233 203 192 199 194 190 206 218 228 239 252 245 230 225 228 236 234 218 225 239
201 200 203 206 209 210 216 216 218 220 220 221 220 220 181 135 158 159 180 191 203 197 210 222 212 173 206 214 216 233 244 252 246 243 270 292 260 230 224 215 224 225
203 201 204 205 206 210 212 214 216 219 223 224 217 222 160 168 162 188 192 201 200 200 195 202 197 195 209 217 217 225 248 249 234 203 194 210 254 251 230 225 226 237
204 205 204 205 206 208 208 211 216 219 221 223 216 208 168 174 182 192 206 196 205 195 200 201 201 200 207 210 216 220 226 241 243 228 222 233 242 241 236 234 239 247
206 204 203 204 204 205 207 212 215 218 219 219 209 204 180 185 186 195 200 201 202 199 204 189 188 199 210 217 215 216 217 222 225 226 227 232 240 240 235 230 235 237
202 202 200 200 202 200 206 212 214 217 217 215 212 204 185 191 193 188 183 197 201 200 203 192 192 203 205 203 205 210 210 217 218 222 227 235 240 239 233 243 265 261
200 198 197 196 198 202 208 211 213 214 214 214 213 203 196 185 186 186 185 192 194 200 203 203 210 212 211 204 199 198 203 213 218 221 224 226 238 233 230 205 201 58
198 200 196 197 201 204 210 212 212 211 212 215 215 204 198 190 179 180 186 192 193 191 196 205 213 216 210 207 209 215 213 215 220 222 216 215 210 205 177 127 93 74
202 200 199 203 202 207 212 215 213 210 212 214 213 202 198 182 178 184 187 187 191 193 197 205 208 211 196 216 228 230 230 221 219 218 217 215 210 189 154 141 119 100
197 201 204 205 206 208 211 213 211 205 204 200 203 197 179 182 184 175 184 182 178 187 188 107 56 25 356 327 303 287 261 241 217 217 213 215 193 113 133 128 121 111
191 198 204 207 204 204 205 207 204 204 197 195 185 170 180 184 177 171 154 149 131 99 74 53 49 5 356 341 331 321 308 291 251 206 68 62 92 122 67 82 107 119
193 196 201 203 202 199 195 195 193 186 174 151 109 91 73 59 59 71 69 57 52 62 73 51 14 6 0 348 329 314 310 300 304 27 89 75 54 32 25 47 63 88
192 196 199 198 196 188 177 164 138 121 98 85 82 86 90 87 61 53 52 58 56 55 59 44 19 14 12 12 3 343 291 271 68 96 119 122 105 94 87 64 47 58
193 192 194 192 182 167 149 125 113 104 104 106 96 91 79 71 78 77 78 76 69 66 64 43 26 14 28 29 23 11 24 36 87 98 97 94 97 107 107 114 100 91
359 324 211 179 162 142 119 112 110 110 120 124 120 112 99 100 98 83 68 68 71 69 66 66 43 14 30 46 42 29 20 15 86 109 103 108 114 110 112 122 121 116
107 79 12 5 36 86 116 111 109 113 113 96 98 102 104 106 100 96 90 79 76 74 70 72 62 29 18 38 51 47 38 12 4 111 122 115 103 83 57 50 47 88
112 115 113 105 102 58 63 85 82 103 98 92 89 95 101 101 100 97 95 86 81 81 75 65 65 57 30 20 43 52 51 45 21 22 54 81 68 62 56 32 30 15